N410HA KTMB-KMTH

Flight info

Callsign N410HA
Flight time 0h 32m
Altitude 6500
Route VFR
Aircraft SF50/L-VGD/C

Departure

Time 2026-05-06 20:57
Airport Miami Executive Airport (KTMB)

Arrival

Time 2026-05-06 21:29
Airport Florida Keys Marathon International Airport (KMTH)
Time Latitude Longitude Altitude Speed Heading
2026-05-06 20:48 25.65169 -80.42235 8 ft 0 kts 178°
2026-05-06 20:49 25.65167 -80.42235 8 ft 0 kts 187°
2026-05-06 20:49 25.65162 -80.42241 8 ft 1 kts 259°
2026-05-06 20:50 25.65161 -80.42256 7 ft 3 kts 265°
2026-05-06 20:50 25.65159 -80.42315 7 ft 11 kts 269°
2026-05-06 20:50 25.65152 -80.42425 8 ft 16 kts 265°
2026-05-06 20:50 25.65140 -80.42565 7 ft 19 kts 269°
2026-05-06 20:51 25.65132 -80.42714 8 ft 18 kts 269°
2026-05-06 20:51 25.65130 -80.42763 8 ft 0 kts 268°
2026-05-06 20:51 25.65130 -80.42778 7 ft 6 kts 268°
2026-05-06 20:51 25.65128 -80.42817 8 ft 0 kts 280°
2026-05-06 20:53 25.65129 -80.42822 8 ft 5 kts 277°
2026-05-06 20:53 25.65126 -80.42910 7 ft 17 kts 266°
2026-05-06 20:53 25.65125 -80.43053 8 ft 12 kts 278°
2026-05-06 20:53 25.65158 -80.43108 8 ft 8 kts 329°
2026-05-06 20:54 25.65189 -80.43153 8 ft 9 kts 273°
2026-05-06 20:54 25.65184 -80.43255 8 ft 16 kts 266°
2026-05-06 20:54 25.65179 -80.43390 7 ft 19 kts 266°
2026-05-06 20:54 25.65173 -80.43539 8 ft 20 kts 265°
2026-05-06 20:55 25.65165 -80.43694 7 ft 20 kts 264°
2026-05-06 20:55 25.65157 -80.43852 7 ft 20 kts 266°
2026-05-06 20:55 25.65125 -80.43974 8 ft 13 kts 231°
2026-05-06 20:55 25.65089 -80.44035 8 ft 8 kts 226°
2026-05-06 20:56 25.65049 -80.44049 8 ft 6 kts 150°
2026-05-06 20:56 25.64978 -80.43954 8 ft 40 kts 128°
2026-05-06 20:56 25.64648 -80.43488 81 ft 99 kts 130°
2026-05-06 20:56 25.64137 -80.42883 480 ft 120 kts 141°
2026-05-06 20:57 25.63301 -80.42962 930 ft 148 kts 218°
2026-05-06 20:57 25.63028 -80.44068 1403 ft 165 kts 281°
2026-05-06 20:57 25.63195 -80.45393 1831 ft 180 kts 276°
2026-05-06 20:57 25.63143 -80.46690 2589 ft 168 kts 264°
2026-05-06 20:58 25.62984 -80.47976 3098 ft 179 kts 263°
2026-05-06 20:58 25.62841 -80.49412 3582 ft 197 kts 270°
2026-05-06 20:58 25.62803 -80.50982 4121 ft 210 kts 270°
2026-05-06 20:58 25.62772 -80.52617 4647 ft 220 kts 270°
2026-05-06 20:59 25.62743 -80.54351 5181 ft 228 kts 270°
2026-05-06 20:59 25.62716 -80.56107 5704 ft 233 kts 271°
2026-05-06 20:59 25.62689 -80.57922 6232 ft 237 kts 271°
2026-05-06 20:59 25.62660 -80.59795 6451 ft 254 kts 271°
2026-05-06 21:00 25.62629 -80.61810 6486 ft 266 kts 271°
2026-05-06 21:00 25.62597 -80.63860 6490 ft 269 kts 271°
2026-05-06 21:00 25.62564 -80.65958 6471 ft 271 kts 270°
2026-05-06 21:00 25.62530 -80.68030 6473 ft 271 kts 270°
2026-05-06 21:01 25.62497 -80.70136 6471 ft 271 kts 270°
2026-05-06 21:01 25.62462 -80.72198 6471 ft 271 kts 270°
2026-05-06 21:01 25.62428 -80.74307 6462 ft 271 kts 270°
2026-05-06 21:01 25.62393 -80.76398 6447 ft 271 kts 270°
2026-05-06 21:02 25.62357 -80.78465 6456 ft 271 kts 270°
2026-05-06 21:02 25.62322 -80.80562 6456 ft 272 kts 270°
2026-05-06 21:02 25.62286 -80.82654 6455 ft 272 kts 270°
2026-05-06 21:02 25.62252 -80.84740 6459 ft 272 kts 270°
2026-05-06 21:03 25.62216 -80.86847 6458 ft 271 kts 269°
2026-05-06 21:03 25.62180 -80.88941 6460 ft 271 kts 269°
2026-05-06 21:03 25.62143 -80.91035 6461 ft 271 kts 269°
2026-05-06 21:03 25.62103 -80.93105 6455 ft 271 kts 268°
2026-05-06 21:04 25.61439 -80.95051 6454 ft 272 kts 231°
2026-05-06 21:04 25.59921 -80.96246 6439 ft 270 kts 198°
2026-05-06 21:04 25.58128 -80.96807 6454 ft 269 kts 193°
2026-05-06 21:04 25.56306 -80.97328 6460 ft 269 kts 193°
2026-05-06 21:05 25.54488 -80.97845 6459 ft 269 kts 193°
2026-05-06 21:05 25.52672 -80.98364 6461 ft 269 kts 193°
2026-05-06 21:05 25.50857 -80.98881 6453 ft 270 kts 193°
2026-05-06 21:05 25.49016 -80.99406 6449 ft 270 kts 193°
2026-05-06 21:06 25.47205 -80.99920 6455 ft 269 kts 193°
2026-05-06 21:06 25.45381 -81.00440 6454 ft 269 kts 193°
2026-05-06 21:06 25.43565 -81.00957 6458 ft 270 kts 193°
2026-05-06 21:06 25.41740 -81.01475 6460 ft 270 kts 193°
2026-05-06 21:07 25.39907 -81.01997 6462 ft 270 kts 193°
2026-05-06 21:07 25.38089 -81.02513 6464 ft 270 kts 193°
2026-05-06 21:07 25.36281 -81.03027 6468 ft 271 kts 193°
2026-05-06 21:07 25.34431 -81.03552 6471 ft 271 kts 193°
2026-05-06 21:08 25.32589 -81.04075 6467 ft 271 kts 193°
2026-05-06 21:08 25.30758 -81.04594 6471 ft 272 kts 193°
2026-05-06 21:08 25.28932 -81.05114 6471 ft 272 kts 193°
2026-05-06 21:08 25.27071 -81.05202 6471 ft 269 kts 162°
2026-05-06 21:09 25.25283 -81.04610 6480 ft 269 kts 168°
2026-05-06 21:09 25.23451 -81.04141 6479 ft 269 kts 166°
2026-05-06 21:09 25.21605 -81.03664 6478 ft 270 kts 165°
2026-05-06 21:09 25.19772 -81.03190 6480 ft 270 kts 165°
2026-05-06 21:10 25.17938 -81.02713 6479 ft 270 kts 165°
2026-05-06 21:10 25.16098 -81.02236 6470 ft 270 kts 165°
2026-05-06 21:10 25.14258 -81.01765 6473 ft 270 kts 165°
2026-05-06 21:10 25.12580 -81.00909 6495 ft 265 kts 141°
2026-05-06 21:11 25.11068 -80.99757 6481 ft 267 kts 143°
2026-05-06 21:11 25.09537 -80.98581 6483 ft 267 kts 143°
2026-05-06 21:11 25.07997 -80.97392 6484 ft 268 kts 143°
2026-05-06 21:11 25.06652 -80.96033 6482 ft 265 kts 122°
2026-05-06 21:12 25.05554 -80.94374 6491 ft 265 kts 123°
2026-05-06 21:12 25.04488 -80.92722 6472 ft 265 kts 118°
2026-05-06 21:12 25.03982 -80.90791 6481 ft 262 kts 103°
2026-05-06 21:12 25.03575 -80.88835 6487 ft 262 kts 101°
2026-05-06 21:13 25.03629 -80.86861 6499 ft 259 kts 79°
2026-05-06 21:13 25.03889 -80.84892 6476 ft 260 kts 80°
2026-05-06 21:13 25.04163 -80.82910 6485 ft 260 kts 80°
2026-05-06 21:13 25.04435 -80.80956 6484 ft 261 kts 80°
2026-05-06 21:14 25.04719 -80.78966 6480 ft 261 kts 80°
2026-05-06 21:14 25.05004 -80.76995 6478 ft 260 kts 80°
2026-05-06 21:14 25.05285 -80.75038 6483 ft 260 kts 80°
2026-05-06 21:14 25.05566 -80.73074 6486 ft 260 kts 80°
2026-05-06 21:15 25.05844 -80.71097 6485 ft 260 kts 80°
2026-05-06 21:15 25.05866 -80.69126 6466 ft 264 kts 105°
2026-05-06 21:15 25.05221 -80.67229 6495 ft 263 kts 109°
2026-05-06 21:15 25.04569 -80.65353 6484 ft 264 kts 112°
2026-05-06 21:16 25.03685 -80.63579 6485 ft 264 kts 117°
2026-05-06 21:16 25.02773 -80.61797 6492 ft 264 kts 118°
2026-05-06 21:16 25.01860 -80.60024 6489 ft 265 kts 117°
2026-05-06 21:16 25.00951 -80.58261 6494 ft 265 kts 117°
2026-05-06 21:17 24.99928 -80.56585 6461 ft 268 kts 136°
2026-05-06 21:17 24.98209 -80.55798 6485 ft 272 kts 173°
2026-05-06 21:17 24.96367 -80.56209 6481 ft 274 kts 207°
2026-05-06 21:17 24.95041 -80.57674 6484 ft 273 kts 241°
2026-05-06 21:18 24.94178 -80.59533 6494 ft 272 kts 244°
2026-05-06 21:18 24.93316 -80.61398 6488 ft 272 kts 243°
2026-05-06 21:18 24.92451 -80.63239 6436 ft 270 kts 243°
2026-05-06 21:18 24.91583 -80.65083 6247 ft 271 kts 243°
2026-05-06 21:19 24.90716 -80.66921 6092 ft 270 kts 243°
2026-05-06 21:19 24.89841 -80.68772 5949 ft 269 kts 243°
2026-05-06 21:19 24.88989 -80.70577 5832 ft 269 kts 243°
2026-05-06 21:19 24.88129 -80.72401 5715 ft 268 kts 243°
2026-05-06 21:20 24.87257 -80.74247 5586 ft 268 kts 243°
2026-05-06 21:20 24.86407 -80.76047 5466 ft 267 kts 243°
2026-05-06 21:20 24.85548 -80.77863 5291 ft 268 kts 243°
2026-05-06 21:20 24.84678 -80.79702 5153 ft 267 kts 243°
2026-05-06 21:21 24.83826 -80.81504 4955 ft 267 kts 243°
2026-05-06 21:21 24.82966 -80.83320 4763 ft 267 kts 242°
2026-05-06 21:21 24.82114 -80.85120 4596 ft 265 kts 242°
2026-05-06 21:21 24.81293 -80.86925 4412 ft 265 kts 249°
2026-05-06 21:22 24.80939 -80.88900 4234 ft 263 kts 258°
2026-05-06 21:22 24.80596 -80.90875 4094 ft 261 kts 259°
2026-05-06 21:22 24.80025 -80.92769 3921 ft 261 kts 240°
2026-05-06 21:22 24.79224 -80.94541 3719 ft 261 kts 243°
2026-05-06 21:23 24.78418 -80.96333 3482 ft 262 kts 243°
2026-05-06 21:23 24.77623 -80.98119 3247 ft 259 kts 243°
2026-05-06 21:23 24.76830 -80.99905 2967 ft 258 kts 243°
2026-05-06 21:23 24.76124 -81.01704 2666 ft 258 kts 252°
2026-05-06 21:24 24.75538 -81.03586 2386 ft 258 kts 251°
2026-05-06 21:24 24.74972 -81.05444 2131 ft 257 kts 250°
2026-05-06 21:24 24.74413 -81.07295 1896 ft 255 kts 250°
2026-05-06 21:24 24.73856 -81.09150 1648 ft 255 kts 250°
2026-05-06 21:25 24.73303 -81.10993 1507 ft 250 kts 250°
2026-05-06 21:25 24.72765 -81.12788 1485 ft 243 kts 250°
2026-05-06 21:25 24.72147 -81.14462 1469 ft 237 kts 231°
2026-05-06 21:25 24.70750 -81.15318 1494 ft 228 kts 185°
2026-05-06 21:26 24.69273 -81.14922 1491 ft 218 kts 143°
2026-05-06 21:26 24.68507 -81.13574 1493 ft 211 kts 98°
2026-05-06 21:26 24.68814 -81.12190 1422 ft 176 kts 53°
2026-05-06 21:26 24.69615 -81.11338 1445 ft 147 kts 43°
2026-05-06 21:27 24.70319 -81.10561 1124 ft 144 kts 50°
2026-05-06 21:27 24.70876 -81.09703 946 ft 128 kts 63°
2026-05-06 21:27 24.71225 -81.08839 719 ft 119 kts 69°
2026-05-06 21:27 24.71503 -81.08061 621 ft 96 kts 70°
2026-05-06 21:28 24.71757 -81.07411 448 ft 90 kts 70°
2026-05-06 21:28 24.71992 -81.06782 288 ft 88 kts 71°
2026-05-06 21:28 24.72236 -81.06149 114 ft 89 kts 70°
2026-05-06 21:28 24.72471 -81.05534 11 ft 82 kts 70°
2026-05-06 21:29 24.72665 -81.05011 7 ft 65 kts 68°
2026-05-06 21:29 24.72784 -81.04694 7 ft 21 kts 77°
2026-05-06 21:29 24.72782 -81.04549 7 ft 16 kts 95°
2026-05-06 21:29 24.72769 -81.04446 7 ft 6 kts 105°
2026-05-06 21:30 24.72772 -81.04430 7 ft 0 kts 320°